Tracking 20239 objects as of 23-Jan-2020
HD Live streaming from Space Station
objects crossing your sky now

FENGYUN 1C DEB

Track FENGYUN 1C DEB now!
10-day predictions


NORAD ID: 32178
Int'l Code: 1999-025CTY
Perigee: 778.8 km
Apogee: 936.5 km
Inclination: 100.3 °
Period: 101.9 minutes
Semi major axis: 7228 km
RCS: 0.0128 m2 (small)
Launch date: May 10, 1999
Source: People's Republic of China (PRC)
Launch site: Taiyaun Space Center, China (TSC)

Note: This is SATELLITE DEBRIS
aabbcc
Your satellite tracking list
Your tracking list is empty




NASA's NSSDC Master Catalog

Two Line Element Set (TLE):
1 32178U 99025CTY 20022.78964957  .00000401  00000-0  23367-3 0  9996
2 32178 100.3105  26.8973 0109108  46.8231 314.1991 14.12591684644453
Source of the keplerian elements: AFSPC